Theta_e
330 330 331 330 328 327 327 327 326 325 324 324 325 324 323 324 323 322 320 320 320 320 319 318 317 317 316 316 314 313 314 314 313 314 314 315 315 315 315 314 314 314
328 329 329 329 327 326 326 326 325 324 324 325 326 324 323 323 323 322 320 320 320 320 319 316 315 315 315 315 313 312 314 313 313 313 314 314 314 313 313 314 314 313
326 327 327 326 325 324 324 325 325 325 324 324 325 324 323 323 323 322 321 321 320 319 317 315 314 314 314 314 312 312 313 313 312 313 313 313 312 311 312 313 313 313
326 325 324 323 323 324 324 325 325 325 325 325 325 324 324 324 322 321 322 321 319 318 316 314 313 314 314 313 312 311 313 312 312 312 312 311 310 310 311 312 312 312
325 325 324 323 324 324 324 325 325 325 325 326 325 325 325 324 322 322 322 321 318 317 315 314 314 313 313 313 312 311 312 312 311 312 311 310 310 311 312 312 312 312
325 325 324 324 325 324 324 324 324 324 325 325 325 325 324 323 323 322 321 320 318 316 316 315 314 313 313 313 313 311 311 312 311 310 310 311 311 312 311 311 311 311
325 325 324 324 324 324 323 323 323 323 323 324 324 324 323 323 323 322 321 319 317 316 316 315 315 314 313 314 313 312 311 311 310 310 310 311 310 310 310 310 310 310
325 324 324 323 322 323 322 323 323 322 322 323 324 323 323 324 323 322 320 318 317 316 315 315 315 314 314 314 314 312 311 310 311 311 311 310 309 309 310 309 309 309
324 323 323 322 321 321 321 321 321 322 323 323 323 322 322 322 321 321 319 317 317 316 316 315 315 315 314 314 314 312 311 310 311 311 311 310 310 310 309 309 308 308
322 322 322 322 321 320 320 320 320 321 322 322 322 321 320 319 320 319 318 317 317 316 316 316 316 315 314 314 314 312 311 311 310 310 311 311 310 310 309 309 308 308
321 322 322 322 322 321 321 320 320 320 321 322 321 320 319 319 319 318 316 316 317 316 316 317 316 315 315 314 313 312 311 311 310 310 311 311 310 309 308 308 308 307
319 320 321 321 321 322 321 321 320 320 320 320 321 320 319 319 318 318 317 317 317 316 316 316 316 316 315 314 313 312 311 310 310 309 309 310 310 308 307 307 308 307
317 318 319 320 320 321 321 321 321 320 320 320 320 320 320 320 319 318 318 318 317 317 317 317 316 315 314 313 313 312 311 310 309 309 309 310 309 308 307 307 308 307
316 317 317 318 319 320 320 320 320 320 320 320 320 320 320 320 319 319 319 318 318 317 317 317 316 314 313 313 312 311 310 309 309 310 310 309 309 308 308 308 307 307
316 317 317 317 319 320 320 320 320 319 319 319 320 320 320 320 320 319 319 318 318 317 316 316 316 315 314 313 312 311 310 309 309 310 310 309 308 308 308 307 306 307
316 316 317 317 319 319 320 320 320 319 318 318 318 319 319 319 319 319 319 318 318 317 317 317 316 315 315 313 312 312 311 310 309 309 309 308 308 308 307 306 306 306
316 316 316 317 318 319 320 320 320 319 318 318 317 317 317 318 318 318 318 318 318 318 317 316 316 315 314 313 312 313 312 311 310 308 307 308 308 308 307 307 307 306
317 316 315 316 317 319 319 319 319 319 319 318 318 317 317 317 317 316 316 316 317 318 317 316 314 313 313 313 314 313 313 311 309 307 305 305 306 307 307 307 306 306
317 316 315 315 316 317 318 319 319 319 320 320 319 318 317 317 317 316 316 316 316 317 317 317 315 314 313 314 314 313 312 311 309 308 306 302 301 304 306 306 306 306
316 316 314 314 315 315 316 317 318 319 320 320 320 319 319 318 317 316 317 318 318 318 317 317 316 315 314 313 313 313 312 310 308 309 308 300 296 301 305 306 306 305
314 316 315 314 314 314 314 315 316 317 318 319 320 320 319 318 318 317 316 317 318 318 317 316 316 315 314 313 313 312 311 310 309 310 308 299 295 301 306 306 306 305
313 316 315 313 313 314 314 314 315 316 317 318 319 319 319 318 318 317 316 316 317 317 316 316 315 315 314 313 312 312 311 311 310 310 306 298 296 302 306 306 305 305
312 315 314 312 311 312 313 314 315 315 316 317 318 318 318 318 318 318 317 316 316 316 316 315 314 314 313 312 311 311 311 311 311 309 304 298 295 301 305 305 305 305
310 311 311 310 310 310 311 313 314 315 315 316 317 318 318 318 318 318 318 317 317 316 316 315 315 314 313 312 312 312 311 311 310 308 304 298 295 300 304 305 304 304
310 309 308 308 309 309 309 310 314 315 315 315 316 317 318 318 318 318 318 318 318 317 316 315 314 314 314 313 313 311 310 310 309 307 304 299 296 300 304 305 305 305
308 308 308 307 308 309 309 309 312 315 315 315 315 315 316 317 317 317 317 317 317 317 316 315 314 314 314 313 313 311 309 308 308 308 307 301 297 301 305 305 305 305
Wind_Speed
19 17 16 18 21 24 26 27 26 24 24 25 24 24 23 21 18 17 16 15 14 14 13 12 12 11 9 8 7 8 6 5 5 4 4 5 4 4 3 2 1 0
19 19 19 21 21 18 16 18 22 24 23 24 24 23 22 22 19 17 17 16 15 14 12 12 11 10 9 7 7 8 7 6 5 4 4 4 3 4 4 2 1 1
22 23 23 21 16 15 14 11 15 22 24 25 25 23 22 22 21 19 18 17 15 14 12 12 11 10 9 7 7 8 7 6 6 4 4 4 3 4 4 2 2 2
25 23 21 19 17 18 19 17 19 23 24 25 26 24 24 23 21 20 20 19 17 15 14 13 12 10 9 7 6 7 7 6 5 5 4 3 3 3 3 2 2 2
20 20 20 22 24 24 24 23 22 20 21 26 28 26 26 25 22 22 22 21 18 17 16 14 13 11 9 8 6 5 6 6 5 4 4 4 4 3 3 3 3 2
17 17 19 23 26 27 26 24 21 17 18 25 30 30 29 27 24 24 24 22 19 18 18 16 15 13 10 9 7 5 6 6 5 4 4 5 5 4 4 3 3 3
19 19 18 19 21 22 23 21 21 20 18 22 30 32 30 27 26 26 25 22 20 20 19 17 16 14 11 10 8 6 6 5 5 5 5 4 3 3 3 3 3 3
19 19 18 19 19 19 17 15 17 18 17 19 27 29 28 29 29 28 25 22 21 22 20 17 16 14 13 12 10 7 6 5 5 6 5 4 3 3 2 2 3 3
16 17 18 18 17 18 17 14 14 15 14 17 21 24 26 28 29 27 24 21 20 20 19 16 15 15 15 14 11 9 7 5 6 6 6 4 4 4 3 2 3 3
15 16 17 16 15 15 15 14 15 16 14 14 16 21 23 25 26 24 22 21 19 19 19 17 17 18 17 16 13 9 7 6 6 7 7 7 6 5 4 4 4 3
15 16 16 16 14 13 13 13 13 15 14 12 13 16 18 20 22 21 20 20 21 22 22 20 19 19 19 17 14 10 8 7 7 8 8 9 8 7 7 6 6 5
16 16 16 15 14 13 12 11 11 13 15 15 14 14 16 17 18 18 19 21 23 23 23 22 21 21 21 19 15 11 9 8 8 9 9 10 9 9 8 7 7 6
17 18 18 17 15 13 11 10 9 11 13 15 16 15 16 18 19 18 17 19 22 25 24 23 23 23 21 18 15 13 11 10 9 9 11 11 10 9 8 7 7 8
18 18 18 17 17 16 14 11 9 9 10 11 12 14 15 17 22 22 19 14 15 21 25 24 24 24 21 18 17 14 12 10 10 10 11 11 10 9 9 9 8 8
18 18 17 16 16 16 16 15 12 10 10 10 11 12 12 13 16 20 19 15 12 15 19 21 22 23 21 19 18 16 13 11 10 11 12 11 11 11 11 10 9 8
18 19 18 17 16 16 16 16 15 13 12 12 12 12 12 12 11 12 14 16 17 16 16 18 21 23 22 22 21 18 15 13 12 13 13 13 13 13 12 11 10 8
18 19 20 18 16 14 15 15 15 15 14 13 13 14 15 15 15 14 13 14 17 18 16 17 22 25 25 25 24 21 17 14 14 14 13 14 15 14 13 11 11 9
17 19 20 19 17 15 14 14 14 14 15 15 15 15 16 16 17 18 18 17 19 20 18 17 20 25 27 26 25 22 18 17 17 14 13 15 16 15 13 12 12 11
16 16 19 19 18 17 15 15 15 14 14 15 16 15 16 16 17 18 19 20 20 21 21 21 21 23 24 24 24 22 20 19 19 16 12 14 16 16 15 14 13 14
15 13 16 17 17 18 17 17 16 16 15 15 15 15 16 17 18 19 19 20 21 21 22 23 23 24 24 24 23 22 21 22 21 16 12 13 15 16 16 15 14 14
16 12 14 16 17 18 18 17 17 16 15 14 14 15 16 16 18 21 22 21 20 20 21 23 24 25 25 25 24 24 23 23 21 16 13 12 14 16 15 13 13 13
17 13 14 17 19 19 18 18 17 16 14 12 12 13 14 14 15 18 21 22 21 20 21 23 22 23 26 28 27 26 24 23 21 17 13 12 14 17 15 13 12 12
17 13 14 18 21 22 21 20 17 16 14 11 11 12 13 13 13 14 17 20 21 22 23 24 23 23 26 28 28 27 25 24 21 17 14 12 15 18 18 15 13 12
16 14 15 19 22 23 24 23 19 15 14 13 12 12 12 12 12 12 14 16 19 22 25 27 27 27 27 27 27 26 26 24 21 17 14 12 15 19 20 17 14 13
15 17 18 20 22 23 25 24 20 15 13 13 13 14 13 12 11 12 13 13 15 18 20 22 25 27 27 27 26 26 26 24 21 17 14 12 15 19 20 18 16 15
16 18 18 19 22 23 24 23 19 16 14 13 13 14 15 14 12 11 12 13 13 14 16 17 20 23 25 25 25 26 26 23 20 18 14 12 15 20 21 19 18 17
Wind_Direction
261 269 265 247 235 230 228 227 225 224 223 220 217 217 212 208 208 208 208 204 200 202 202 198 193 190 191 194 199 195 185 186 194 201 205 201 204 201 194 192 189 195
269 271 271 257 244 245 250 242 233 230 229 226 225 224 216 210 211 209 206 203 203 207 207 202 199 197 193 191 196 195 188 188 193 191 194 197 214 220 210 210 203 177
278 278 282 279 277 293 305 287 242 233 233 231 228 227 219 214 213 209 207 208 206 205 201 195 192 191 190 190 194 195 192 194 192 188 206 223 240 229 211 203 208 209
281 288 301 311 316 305 288 268 245 235 235 234 229 224 219 215 213 209 207 209 207 203 196 190 189 187 187 193 197 195 199 205 197 192 208 219 221 216 204 200 206 222
295 298 302 298 296 288 270 256 250 247 245 240 231 222 217 214 212 209 206 206 205 202 194 189 192 193 192 200 204 203 209 211 207 208 208 190 181 184 179 189 205 225
314 309 302 290 285 282 272 259 252 262 267 248 232 221 214 211 210 207 205 205 202 198 193 190 194 198 200 205 210 214 216 220 226 221 196 172 166 177 183 196 211 217
322 322 314 301 293 287 281 269 257 267 277 250 230 220 212 208 207 204 203 205 202 197 196 195 196 201 204 207 213 218 217 227 227 201 190 191 194 200 197 200 204 202
319 322 318 308 299 290 286 277 261 266 272 249 229 220 213 208 204 201 201 204 202 200 200 200 200 204 206 208 213 218 219 223 210 200 218 233 207 196 190 184 194 198
315 319 319 312 302 291 285 279 264 258 263 251 229 214 208 203 198 198 199 200 201 203 204 204 204 204 205 209 213 217 220 218 212 218 235 228 200 200 200 190 200 209
315 317 320 317 310 299 293 291 273 253 250 251 229 211 207 204 200 200 198 196 200 208 210 210 209 205 204 208 212 216 217 218 223 230 229 218 211 216 225 234 243 242
316 313 314 317 315 304 300 302 288 262 251 250 233 216 212 207 203 202 200 200 205 213 215 213 211 208 207 207 209 212 217 223 228 227 222 220 226 238 247 250 252 255
321 314 309 309 311 308 303 298 289 272 257 254 251 234 217 209 205 206 208 209 211 214 215 214 213 211 208 207 206 209 214 220 228 228 226 230 240 251 252 246 251 265
331 325 317 309 304 304 303 291 282 278 264 257 255 242 224 217 216 216 214 214 219 222 219 215 213 208 205 205 207 209 211 215 222 224 227 236 247 249 239 235 250 266
338 334 326 317 307 300 299 289 272 264 259 256 251 241 232 226 222 219 214 210 219 224 221 217 210 204 203 204 203 205 209 213 217 220 226 235 241 238 231 233 246 257
347 345 336 326 315 306 302 295 283 268 256 254 252 242 235 231 227 225 222 218 217 217 216 215 209 205 204 204 201 203 208 211 216 222 230 236 235 233 235 242 248 246
349 350 345 338 328 319 313 305 296 286 267 255 253 249 242 240 241 243 238 232 226 223 224 222 217 212 209 206 206 210 214 213 217 224 233 238 235 232 233 238 240 236
349 350 349 345 338 329 325 321 310 299 286 272 261 255 252 249 247 249 250 242 235 234 236 231 221 212 207 205 208 214 219 219 218 224 234 236 230 227 226 227 230 230
346 352 352 348 343 335 327 325 319 308 299 288 277 266 259 256 253 250 249 249 245 241 239 233 220 208 204 208 214 218 221 220 217 222 233 234 230 227 223 222 226 223
340 350 356 353 347 340 329 322 316 310 305 298 290 283 271 264 261 255 250 248 247 244 242 239 229 218 215 219 220 218 217 215 215 221 234 238 234 229 222 222 226 221
336 340 355 355 351 346 336 326 317 308 305 302 296 291 282 272 266 261 256 249 243 240 239 238 235 228 223 223 220 216 213 212 215 223 234 238 233 226 222 222 222 218
336 329 345 350 348 345 340 334 326 314 305 303 300 294 287 280 271 263 259 254 246 239 233 232 234 230 223 220 219 215 211 211 217 225 230 230 225 221 218 217 216 219
338 321 332 344 344 339 336 336 334 328 317 305 300 298 293 288 278 266 261 258 251 242 232 226 226 224 220 218 216 213 211 213 218 222 223 223 221 217 216 217 220 231
342 324 331 346 347 340 334 330 329 333 332 315 299 299 297 294 289 276 267 261 251 241 232 226 223 219 215 213 212 211 213 216 216 215 216 221 220 216 217 221 226 236
352 346 346 351 350 345 339 331 322 324 333 327 310 301 297 296 295 287 277 269 257 245 235 229 225 220 215 214 216 216 216 215 212 209 211 219 221 215 215 220 224 232
-0 358 354 351 347 344 342 337 325 314 320 327 321 310 302 297 294 288 281 276 270 261 247 234 229 227 224 224 222 218 216 212 208 207 209 217 219 214 214 218 223 230
1 357 351 347 345 344 343 341 331 313 307 318 323 318 311 302 294 290 287 282 277 272 262 247 239 236 234 233 227 219 214 210 208 209 210 214 218 215 213 219 226 231